Regional Weather Roundup
Issued by NWS Wakefield, VA

Home | Current Version | Previous Version | Graphics & Text | Print | Product List | Glossary On
Versions: 1 2 3 4 5 6 7 8 9 10 11 12 13 14 15 16 17 18 19 20 21 22 23 24 25 26 27 28 29 30 31 32 33 34 35 36 37 38 39 40 41 42 43 44 45 46 47 48 49 50
000
ASUS41 KAKQ 232015
RWRAKQ

REGIONAL WEATHER ROUNDUP
NATIONAL WEATHER SERVICE WAKEFIELD VA
400 PM EDT FRI JUN 23 2017

Note: "fair" indicates few or no clouds below 12,000 feet with no
significant weather and/or obstructions to visibility. * = Denotes
station may not report precipitation (e.g., rain,snow,etc.),
thunder or fog.

VAZ042-051-052>054-056-232100-
NORTHERN VIRGINIA

CITY           SKY/WX    TMP DP  RH WIND       PRES   REMARKS
WASH NATIONAL  LGT RAIN  84  74  71 SW22G28   29.75F
DULLES         LGT RAIN  80  72  76 S16G25    29.74F
FORT BELVOIR   MOSUNNY   81  74  80 S5        29.76F
QUANTICO       LGT RAIN  84  76  76 SW9       29.77F
FREDERICKSBRG* PTSUNNY   86  76  71 SW10G16   29.78S HX  95
STAFFORD*      CLOUDY    82  76  80 S8        29.82F
WARRENTON      CLOUDY    82  73  74 S9        29.77F
CULPEPER*      CLOUDY    83  76  79 SW7       29.78F
MANASSAS*      LGT RAIN  80  75  84 S9        29.76F
LEESBURG*      LGT RAIN N/A N/A N/A SW15G26   29.75S
WINCHESTER     CLOUDY    81  70  69 S15G23    29.74F
FRONT ROYAL*   MOCLDY    79  72  78 S7        29.75F
LURAY*         CLOUDY    79  70  73 S12G18    29.79F
$$

VAZ048-049-060>072-079>083-232100-
CENTRAL AND SOUTH CENTRAL VIRGINIA

CITY           SKY/WX    TMP DP  RH WIND       PRES   REMARKS
RICHMOND       PTSUNNY   90  73  57 SW15G26   29.82F HX  98
CHESTERFIELD*  FAIR      89  75  63 SW9G21    29.83F HX  99
PETERSBURG*    MOSUNNY   89  72  57 CALM      29.84F HX  96
HANOVER        MOSUNNY   88  70  55 SW16G26   29.83F
TAPPAHANNOCK*  PTSUNNY   88  69  53 S12G18    29.81F
QUINTON*       FAIR      87  74  64 W7G16     29.82F HX  95
CHARLOTTSVILLE CLOUDY    86  74  67 S13       29.79F
GORDONSVILLE*  CLOUDY    85  75  71 S15G23    29.79F
ORANGE*        CLOUDY    82  73  74 SW10G18   29.79F
LOUISA*        MOSUNNY   90  77  66 SW10G17   29.80F HX 102
BUMPASS*       FAIR      84  76  77 SW7       29.81F
FARMVILLE*     CLOUDY    88  69  53 SW14      29.82F
CREWE*         CLOUDY    86  67  51 SW3       29.85F
FORT PICKETT*  FAIR      88  68  51 SW12G18   29.85F
CHASE CITY*    FAIR      88  71  57 SW6       29.86F
CLARKSVILLE*   FAIR      88  72  58 SW12G22   29.86F
SOUTH HILL*    MOSUNNY   89  73  59 SW14G22   29.92F HX  97
LAWRENCEVILLE* FAIR      89  74  60 SW10      29.86F HX  97
EMPORIA*       MOSUNNY   88  72  58 S15G21    29.87F
$$

VAZ088>098-232100-
SOUTHEAST VIRGINIA

CITY           SKY/WX    TMP DP  RH WIND       PRES   REMARKS
NORFOLK        MOSUNNY   92  74  55 SW20G30   29.84F HX 101
VIRGINIA BEACH PTSUNNY   89  73  59 SW21G28   29.84F HX  97
NORFOLK NAVAL  MOSUNNY   90  73  57 SW14G24   29.86F HX  98
WEST POINT*    CLOUDY    89  70  53 SW13      29.83F
SALUDA*        MOCLDY    89  77  66 SW9G17    29.81F HX 101
NEWPORT NEWS   MOSUNNY   89  74  60 SW17G24   29.84F HX  98
LANGLEY AFB    MOSUNNY   89  75  63 SW16G25   29.84F HX  99
FORT EUSTIS    MOSUNNY   90  76  64 SW9       29.82F HX 101
WILLIAMSBURG*  MOSUNNY   91  75  59 SW9       29.84F HX 102
HR EXEC AP*    FAIR      90  75  62 SW12G21   29.82F HX 100
FRANKLIN*      MOSUNNY   90  73  58 SW12G20   29.86F HX  98
US460-WAKEFLD  MOSUNNY   90  75  61 SW15      29.84F HX 100
$$

VAZ020-022-025-037-045-232100-
WEST CENTRAL AND SOUTHWEST VIRGINIA

CITY           SKY/WX    TMP DP  RH WIND       PRES   REMARKS
STAUNTON*      CLOUDY    81  68  64 SW16G30   29.84F
WAYNESBORO*    CLOUDY    82  71  68 SW13G23   29.84F
HOT SPRINGS VA CLOUDY    72  64  78 W17G26    29.98F
LYNCHBURG      MOSUNNY   85  72  65 SW10      29.86F
DANVILLE       PTSUNNY   86  71  60 SW15G24   29.87F
SOUTH BOSTON*  FAIR      89  69  52 SW13G21   29.86F
MARTINSVILLE   MOSUNNY   86  71  59 SW7       29.90F
ROANOKE        MOSUNNY   84  70  62 SW9       29.87F
BLACKSBURG     CLOUDY    82  67  60 SW5       29.94F
DUBLIN*        SUNNY     84  62  48 W9        29.93F
MARION*        MOSUNNY   82  65  55 W13       29.96F
HILLSVILLE*    PTSUNNY   78  66  65 CALM      29.95F
RICHLANDS*     FAIR      80  67  63 SW12G22   29.94F
WISE*          MOSUNNY   79  63  57 S15G29    29.93F
ABINGDON*      PTSUNNY   86  67  53 W13G22    29.91F
$$

MDZ021>025-VAZ099-100-232100-
SOUTHERN MARYLAND AND THE DELMARVA PENINSULA

CITY           SKY/WX    TMP DP  RH WIND       PRES   REMARKS
PATUXENT RIVER CLOUDY    85  74  69 SW10G22   29.78F
BAY BRIDGE APT MOSUNNY   86  73  66 S13G18    29.74F
LEONARDTOWN    CLOUDY    82  72  69 SW10      29.80F
DOVER          CLOUDY    89  79  74 SW23      29.72F HX 104
GEORGETOWN     CLOUDY    86  74  67 SW12      29.78F
EASTON         MOSUNNY   86  73  66 SW15G23   29.81S
CAMBRIDGE      SUNNY     84  75  74 S9        29.78F
SALISBURY      CLOUDY    87  75  67 SW13G22   29.79F HX  96
OCEAN CITY     CLOUDY    83  75  77 SW17G25   29.80F
WALLOPS ISLAND MOSUNNY   86  74  67 SW13G23   29.81F
ACCOMACK*      MOSUNNY   89  74  60 SW18G31   29.82F HX  97
$$

NCZ012>017-030>032-232100-
NORTH CENTRAL AND EASTERN NORTH CAROLINA

CITY           SKY/WX    TMP DP  RH WIND       PRES   REMARKS
ROANOKE RAPIDS FAIR      88  73  62 SW12      29.88F HX  96
RALEIGH        MOSUNNY   90  71  53 SW20G29   29.90F HX  96
ELIZABETH CITY MOSUNNY   89  79  72 S14       29.88F HX 104
AHOSKIE*         N/A     87  76  70 S7        29.89S HX  97
EDENTON*       MOSUNNY   90  76  64 SW14      29.90F HX 102
CURRITUCK*     CLOUDY    87  75  68 S12       29.89F HX  97
KILL DEVIL HLS MOSUNNY   87  73  64 CALM      29.90F
MANTEO         MOSUNNY   87  74  66 SW17      29.92F HX  95
CAPE HATTERAS  PTSUNNY   85  76  74 SW14G22   29.96F
TARBORO*       NOT AVBL
GOLDSBORO      MOSUNNY   91  75  59 SW15G22   29.90F HX 101
WASHINGTON     SUNNY    N/A N/A N/A SW16G23   29.91F
GREENVILLE     SUNNY     91  73  55 W13G18    29.93F HX 100
NEW BERN       MOSUNNY   90  76  63 SW10      29.94F HX 101
WILMINGTON     PTSUNNY   88  76  67 S14G22    29.96F HX  99
$$

VAZ048-232100-
ELSEWHERE

CITY           SKY/WX    TMP DP  RH WIND       PRES   REMARKS
HARRISBURG PA  PTSUNNY   86  72  62 VRB7      29.64F
BALTIMORE      PTSUNNY   87  73  62 SW12G22   29.71F
ANNAPOLIS      PTSUNNY   87  76  69 SW14G22   29.73F HX  97
ANDREWS AFB    CLOUDY    82  74  75 SW18G24   29.76F
PHILADELPHIA   PTSUNNY   88  72  58 SW20G26   29.71F
HENDERSON NC   SUNNY     86  68  55 SW24      29.88F
GREENSBORO     PTSUNNY   87  70  56 SW21G33   29.90F
ROCKY MOUNT    MOSUNNY   90  74  59 SW16      29.90F HX  99
$$

VAZ100-232100-
MARINE

STATION/POSITION TIME  TEMP    WIND        PRES    WAVE   SWELL
                       AIR SEA DIR/SP/G            HT/PER HT/PER
                 (UTC) (F)     (DEG/KT/KT) (MB)    (FT/S) (FT/S)
BRANDYWINE LGT   1948          230/ 19/ 24   N/A
CAPE MAY NJ      1948   82 73  240/ 18/ 21 1007.5F
LEWES DE         1948   85 69  250/ 13/ 18 1008.1S
15NM E FENWICK I 1950   72 68  200/ 19/ 23 1009.0F   4/ 5   2/ 8
OCEAN-CITY-INLET 1948   71 72  220/ 15/ 18 1009.5F
WACHAPREAGUE VA  1948   89 83  220/ 12/ 20 1009.5F
THOMAS POINT MD  2000   83 78  220/ 23/ 26   N/A
GOOSES REEF MD   2000   82 79  260/ 10/ 12 1009.0    2/ 2
COVE POINT MD    1948   83     230/ 13/ 17 1008.9F
SOLOMONS ISLAND  1948   84 77  230/ 15/ 19   N/A
PINEY POINT MD   1948          260/  8/ 13   N/A
POTOMAC MD       2000   85 79  240/ 14/ 17 1007.6    2/ 3
CAMBRIDGE MD     1948   85 81              1009.2F
LEWISETTA VA     1948   86 81  250/ 12/ 16 1008.8F
RAPPAHANNOCK LGT 1948          200/ 15/ 17 1010.5F
STINGRAY PT      2000   85 78  260/ 14/ 17 1010.3    1/ 3
YORK RVR RNG VA  1948   87     250/ 23/ 28 1010.1F
YORKTOWN VA      1948   87 77  230/ 12/ 18 1009.7F
JAMESTOWN VA     2000   87 83  230/ 14/ 17   N/A
DOMINION TERM VA 1948   85     230/ 14/ 16 1010.8F
KIPTOPEKE VA     1948      78  230/  9/ 12   N/A
CHES BAY BRIDGE  1948   84 76  240/ 16/ 22 1010.4F
CAPE HENRY VA    1948   88     200/  9/ 15   N/A
WILLOUBY STN VA  1948   85     230/ 18/ 20 1010.4F
S CRANEY ISL VA  1948   88     230/ 11/ 17 1010.6F
CAPE HENRY BUOY  2000      74                N/A     2/ 8
1ST LANDING BUOY 2000   84 75              1010.4    2/ 3
CAPE CHARLES BUO 1951      65                N/A     2/ 3
64NM E OF VA BCH 1950   75 73  200/ 17/ 19 1012.7F   3/ 4   2/ 8
DUCK PIER NC     1948   84 65  210/ 14/ 19 1011.9F
44100 DUCK FRF   1935      68                N/A     2/ 8
OREGON INLET NC  1948          200/ 21/ 25   N/A
HATTERAS NC      1948   82 79  220/ 13/ 19 1014.3F
DIAMOND SHLS NC  1950   81 81  220/ 19/ 23 1014.6F   3/ 8   2/ 8
CAPE LOOKOUT NC  2000   82     210/ 17/ 20 1014.7F
$$



USA.gov is the U.S. government's official web portal to all federal, state and local government web resources and services.